Location: Alpha Ridge Park
(39.3209°N, 76.9128°W)
Time: 06:41:27
(UTC-04:00)

S-56A Canister/Altair - Pass Details

Date: 27 May 2019
Orbit: 633 x 2499 km, 38.9° (Epoch: 15 June)

Event Time Altitude Azimuth Distance (km) Brightness Sun altitude
Rises 08:11:23 0° 281° (W) 4,632 11.0 25.9°
Reaches altitude 10° 08:14:43 10° 269° (W) 3,918 10.7 26.5°
Maximum altitude 08:23:13 28° 217° (SW) 3,295 10.6 28.2°
Drops below altitude 10° 08:33:57 10° 166° (SSE) 4,994 11.9 30.2°
Sets 08:38:59 0° 156° (SSE) 6,122 12.4 31.2°
